2018-104F (43854 NORAD) Tracking and Keplerian Element Data

This shows tracking and keplerian element data for the satellite.

Feedback or suggestion? Click here.




ElementValue
Catalog43854
Name2018-104F
Epoch Orbit438
Epoch Day14.36280191
Epoch Year2019
RAAN159.0601
Inclination85.0295
Eccentricity0.0018117
Argument of Perigee164.8578
Mean Anonmoly195.362
Mean Motion15.21978623
Decay Rate4.2E-07
L11 43854U 18104F 19014.36280191 .00000042 00000-0 00000+0 0 9998
L22 43854 85.0295 159.0601 0018117 164.8578 195.3620 15.21978623 4389

Live tracking and technical data element details for 2018-104F (NORAD 43854). 2018-104F can be tracked NOW for your location showing map with azimuth and elevation plus other details from your city location.

Track the satellite on the map from your city or location and see movement details for azimuth, elevation, latitude, longitude, range, height, and movement on the map or in text.







IsCatalogInMostPopularTable: catalog: 43854, numindb: 21
Update: records affected: 1



GetName: 43854 2018-104F

Hit Count: updated at: Thu, 17 Jan 2019 15:30:46 GMT